User: anonymous   Login
Location: Kalberh�ni
(46.4610°N, 7.2453°E)
Time: 21:53:34
(UTC+00:00)
Language:

PAINANI-2 - Orbit

View from above orbital plane
View from above orbital plane
View from above satellite
View from above satellite

Ground track
Ground track

The orbit data is extracted from the following two-line orbital elements,

1 48928U 21059BB  22022.28231913  .00002984  00000-0  16586-3 0  9997
2 48928  97.5368 153.6784 0014229 241.0461 118.9344 15.14391112 31845
Epoch (UTC): 22 January 2022 06:46:32
Eccentricity: 0.0014229
inclination: 97.5368°
perigee height: 513 km
apogee height: 532 km
right ascension of ascending node: 153.6784°
argument of perigee: 241.0461°
revolutions per day: 15.14391112
mean anomaly at epoch: 118.9344°
orbit number at epoch: 3184

The dashed part of the orbit path shows where the satellite is in the earth's shadow,  

DLR